Belize, Belize

12:29 AM CST on March 29, 2017 (GMT -0600)
Philip S W Goldson International

Weather History for MZBZ - November, 2013

Change the Weather History Date:

Tuesday, November 26, 2013

  Actual Average Record
Temperature  
Mean Temperature 79 °F -  
Max Temperature 85 °F 82 °F 87 °F (2010)
Min Temperature 73 °F 69 °F 62 °F (1999)
Cooling Degree Days 14    
Growing Degree Days 29 (Base 50)    
Moisture  
Dew Point 75 °F    
Average Humidity 87    
Maximum Humidity 100    
Minimum Humidity 65    
Precipitation  
Precipitation 0.00 in 0.23 in - ()
Sea Level Pressure  
Sea Level Pressure 29.90 in    
Wind  
Wind Speed 1 mph ()    
Max Wind Speed 7 mph    
Max Gust Speed -    
Visibility 7.4 miles    
Events Fog , Rain , Thunderstorm    
Averages and records for this station are not official NWS values.
T = Trace of Precipitation, MM = Missing Value Source: Averaged Metar Reports

Daily Weather History Graph

Daily Weather History Graph

Search for Another Location

Airport or City:

Trip Planner

Search our weather history database for the weather conditions in past years. The results will help you decide how hot, cold, wet, or windy it might be!

Date:

Astronomy

Nov. 26, 2013 Rise Set
Actual Time 6:04 AM CST 5:16 PM CST
Civil Twilight 5:41 AM CST 5:39 PM CST
Nautical Twilight 5:14 AM CST 6:06 PM CST
Astronomical Twilight 4:48 AM CST 6:32 PM CST
Moon 12:03 AM CST (11/26) 12:32 PM CST (11/26)
Length of Visible Light 11h 58m
Length of Day
11h 11m
Last Quarter, 41% of the Moon is Illuminated
Nov 26
Last Quarter
Dec 2
New
Dec 9
First Quarter
Dec 17
Full
Dec 25
Last Quarter

Hourly Weather History & Observations

Time (CST) Temp. Heat Index Dew Point Humidity Pressure Visibility Wind Dir Wind Speed Gust Speed Precip Events Conditions
12:00 AM 75 °F - 74 °F 95% 29.91 in 12 mi Calm Calm - -   Scattered Clouds
3:00 AM 73 °F - 73 °F 99% 29.89 in 12 mi Calm Calm - -   Partly Cloudy
5:00 AM 73.4 °F - 73.4 °F 100% 29.86 in 6.2 mi Calm Calm - N/A   Partly Cloudy
6:00 AM 73 °F - 72 °F 97% 29.90 in 12 mi Calm Calm - -   Partly Cloudy
6:00 AM 73.4 °F - 71.6 °F 94% 29.89 in 6.2 mi Calm Calm - N/A   Partly Cloudy
7:00 AM 73.4 °F - 73.4 °F 100% 29.92 in 0.5 mi Calm Calm - N/A Fog Fog
8:00 AM 77.0 °F - 73.4 °F 89% 29.92 in 6.2 mi Calm Calm - N/A   Mostly Cloudy
9:00 AM 79 °F - 75 °F 85% 29.95 in 12 mi West 5.8 mph - -   Partly Cloudy
9:00 AM 78.8 °F - 75.2 °F 89% 29.94 in 6.2 mi West 5.8 mph - N/A   Scattered Clouds
10:00 AM 80.6 °F 86.2 °F 75.2 °F 84% 29.94 in 6.2 mi Calm Calm - N/A   Mostly Cloudy
11:00 AM 84.2 °F 94.1 °F 77.0 °F 79% 29.91 in 6.2 mi WNW 3.5 mph - N/A   Mostly Cloudy
12:00 PM 84 °F - 75 °F 68% 29.89 in 12 mi Calm Calm - -   Partly Cloudy
12:00 PM 84.2 °F 92.3 °F 75.2 °F 74% 29.89 in 6.2 mi Calm Calm - N/A   Mostly Cloudy
1:00 PM 84.2 °F 92.3 °F 75.2 °F 74% 29.87 in 6.2 mi NE 2.3 mph - N/A   Scattered Clouds
2:00 PM 84.2 °F 92.3 °F 75.2 °F 74% 29.85 in 6.2 mi NE 6.9 mph - N/A   Scattered Clouds
3:00 PM 85 °F - 75 °F 65% 29.84 in 12 mi NE 6.9 mph - -   Partly Cloudy
3:00 PM 82.4 °F 89.5 °F 75.2 °F 79% 29.85 in 6.2 mi Calm Calm - N/A Thunderstorm Thunderstorm
4:00 PM 82.4 °F 89.5 °F 75.2 °F 79% 29.85 in 6.2 mi Calm Calm - N/A Thunderstorm Thunderstorm
5:00 PM 78.8 °F - 77.0 °F 94% 29.87 in 6.2 mi South 4.6 mph - N/A Rain Light Rain Showers
5:40 PM 78.8 °F - 77.0 °F 94% 29.89 in 3.1 mi Calm Calm - N/A   Mostly Cloudy
6:00 PM 78.8 °F - 77.0 °F 94% 29.89 in 6.2 mi Calm Calm - N/A   Scattered Clouds
6:15 PM 78.8 °F - 77.0 °F 94% 29.90 in 3.1 mi North 6.9 mph - N/A Rain Light Rain Showers
7:00 PM 77.0 °F - 75.2 °F 94% 29.93 in 6.2 mi NE 6.9 mph - N/A   Scattered Clouds
9:00 PM 77 °F - 75 °F 92% 29.97 in 12 mi Calm Calm - -   Partly Cloudy